ONEWEB-0592

operational
NORAD ID: 54658 Int'l Des: 2022-166 Owner: ONEWEBN Country: UK Constellation: oneweb
LEOCIRCULARPOLARONEWEB_TYPE

ONEWEB-0592について

説明を読み込み中...

リアルタイム位置

3D地球を読み込み中...

次回通過

高度履歴

Altitude vs Time

uPlot chart will show altitude changes over time

軌道要素

1 54658U 22166S 25251.87249757 .00000019 00000-0 14677-4 0 9998
2 54658 87.9225 300.0855 0002104 96.0592 264.0782 13.21823025134275
Epoch: Sep 8, 2025 • Age: 13 hours

現在のステータス

高度 1183.3 km
速度 7.27 km/s
衛星直下点 44.60°N, 25.88°W
打ち上げ日 Dec 8, 2022
運用期間 2.7 years
タイプ internet

技術仕様

分類 Payload
質量 148.00 kg
乾燥質量 140.00 kg
総質量 148.00 kg
長さ 1.30 m
直径 1.00 m
スパン 5.00 m
形状 Trapezoid+2 pan
製造者 ONEWUS
バスタイプ ARROW
フェーズステータス In Orbit
所有者/国 ONEWEBN/UK

大規模コンステレーション

Loading constellations...